User: anonymous   Login
Location: Amos
(48.5670°N, 78.1170°W)
Time: 10:18:18
(UTC-05:00)
Language:

NO-84 - Orbit

View from above orbital plane
View from above orbital plane
View from above satellite
View from above satellite

Ground track
Ground track

The orbit data is extracted from the following two-line orbital elements,

1 40654U 15025D   20014.78687802  .00007712  00000-0  10044-3 0  8263
2 40654  54.9874 291.9568 0128862 146.1555 214.7651 15.50682427145008
Epoch (UTC): 14 January 2020 18:53:06
Eccentricity: 0.0128862
inclination: 54.9874°
perigee height: 327 km
apogee height: 502 km
right ascension of ascending node: 291.9568°
argument of perigee: 146.1555°
revolutions per day: 15.50682427
mean anomaly at epoch: 214.7651°
orbit number at epoch: 14500

The dashed part of the orbit path shows where the satellite is in the earth's shadow,  

DLR